Location: The Saddle
(36.8333°N, 80.3417°W)
Time: 05:00:24
(UTC-04:00)

Vanguard 3 - Pass Details

Date: 28 February 2024
Orbit: 510 x 3234 km, 33.3° (Epoch: 24 April)

Event Time Altitude Azimuth Distance (km) Brightness Sun altitude
Rises 00:25:19 0° 278° (W) 7,203 12.1 -61.2°
Reaches altitude 10° 00:30:20 10° 277° (W) 6,132 11.6 -61.3°
Enters shadow 00:34:50 21° 274° (W) 5,152 11.1 -61.3°
